Weather History for Owosso, MI

Change the Weather History Date:

Thursday, December 12, 2013

  Actual Average (KFNT) Record (KFNT)
Temperature  
Mean Temperature 10 °F 28 °F  
Max Temperature 20 °F 35 °F 61 °F (1949)
Min Temperature 0 °F 22 °F -8 °F (1958)
Degree Days  
Heating Degree Days 55 37  
Month to date heating degree days 415  
Since 1 July heating degree days 1896  
Cooling Degree Days 0 0  
Month to date cooling degree days 0  
Year to date cooling degree days 531  
Moisture  
Dew Point 6 °F    
Average Humidity 76    
Maximum Humidity 87    
Minimum Humidity 55    
Precipitation  
Precipitation 0.00 in 0.07 in 1.54 in (1946)
Month to date precipitation 0.82  
Year to date precipitation 30.27  
Snow  
Snow 0.00 in 0.40 in 5.50 in (2010)
Month to date snowfall 4.0  
Since 1 July snowfall 6.9  
Snow Depth -    
Sea Level Pressure  
Sea Level Pressure 30.26 in    
Wind  
Wind Speed 7 mph (SW)    
Max Wind Speed 20 mph    
Max Gust Speed 30 mph    
Visibility 9 miles    
Events Snow    
T = Trace of Precipitation, MM = Missing Value Source: NWS Daily Summary

Daily Weather History Graph

Daily Weather History Graph

Search for Another Location

Airport:

Trip Planner

Search our weather history database for the weather conditions in past years. The results will help you decide how hot, cold, wet, or windy it might be!

Date:

Astronomy

Dec. 12, 2013 Rise Set
Actual Time 7:58 AM EST 5:02 PM EST
Civil Twilight 7:26 AM EST 5:34 PM EST
Nautical Twilight 6:50 AM EST 6:10 PM EST
Astronomical Twilight 6:16 AM EST 6:44 PM EST
Moon 2:13 PM EST (12/12) 3:15 AM EST (12/12)
Length of Visible Light 10h 07m
Length of Day
9h 03m
Waxing Gibbous, 80% of the Moon is Illuminated
Dec 12
Waxing Gibbous
Dec 17
Full
Dec 25
Last Quarter
Jan 1
New
Jan 7
First Quarter

Hourly Weather History & Observations

Time (EST) Temp. Windchill Dew Point Humidity Pressure Visibility Wind Dir Wind Speed Gust Speed Precip Events Conditions
12:15 AM 5.4 °F -1.7 °F -1.1 °F 75% 30.42 in 10.0 mi WSW 3.5 mph - N/A   Scattered Clouds
12:35 AM 4.6 °F -6.0 °F -1.5 °F 76% 30.41 in 10.0 mi WSW 5.8 mph - N/A   Clear
12:55 AM 3.7 °F - -2.2 °F 76% 30.41 in 10.0 mi Calm Calm - N/A   Clear
1:14 AM 3.0 °F - -2.2 °F 79% 30.40 in 10.0 mi Calm Calm - N/A   Clear
1:35 AM 1.6 °F - -3.6 °F 79% 30.39 in 10.0 mi Calm Calm - N/A   Clear
1:55 AM 0.5 °F - -4.0 °F 81% 30.39 in 10.0 mi Calm Calm - N/A   Clear
2:15 AM -0.6 °F - -4.4 °F 84% 30.39 in 10.0 mi Calm Calm - N/A   Clear
2:35 AM 0.3 °F -7.5 °F -3.1 °F 85% 30.39 in 10.0 mi SW 3.5 mph - N/A   Clear
2:55 AM 2.8 °F -8.2 °F -0.8 °F 85% 30.39 in 10.0 mi WSW 5.8 mph - N/A   Clear
3:15 AM 4.3 °F -4.9 °F 0.9 °F 86% 30.39 in 10.0 mi SW 4.6 mph - N/A   Scattered Clouds
3:34 AM 6.1 °F -4.3 °F 2.8 °F 87% 30.39 in 10.0 mi WSW 5.8 mph - N/A   Mostly Cloudy
3:55 AM 7.0 °F -1.7 °F 3.4 °F 85% 30.38 in 10.0 mi SW 4.6 mph - N/A Snow Light Snow
4:15 AM 8.1 °F -0.5 °F 4.5 °F 85% 30.38 in 7.0 mi WSW 4.6 mph - N/A Snow Light Snow
4:34 AM 8.4 °F -0.1 °F 4.8 °F 85% 30.38 in 10.0 mi SW 4.6 mph - N/A   Overcast
4:55 AM 8.8 °F 2.2 °F 5.0 °F 85% 30.37 in 10.0 mi SW 3.5 mph - N/A   Overcast
5:15 AM 8.6 °F 0.1 °F 5.0 °F 85% 30.37 in 5.0 mi SSW 4.6 mph - N/A Snow Light Snow
5:35 AM 9.0 °F 2.4 °F 5.4 °F 85% 30.37 in 5.0 mi SW 3.5 mph - N/A Snow Light Snow
5:55 AM 9.1 °F 0.8 °F 5.7 °F 86% 30.36 in 5.0 mi SSW 4.6 mph - N/A Snow Light Snow
6:15 AM 9.5 °F -0.3 °F 5.9 °F 85% 30.36 in 3.0 mi SSW 5.8 mph - N/A Snow Light Snow
6:35 AM 9.7 °F 1.4 °F 6.1 °F 85% 30.35 in 2.0 mi SSW 4.6 mph - N/A Snow Light Snow
6:55 AM 10.0 °F 3.6 °F 6.4 °F 85% 30.35 in 4.0 mi SSW 3.5 mph - N/A Snow Light Snow
7:15 AM 10.2 °F 0.6 °F 6.8 °F 86% 30.35 in 2.0 mi SSW 5.8 mph - N/A Snow Light Snow
7:35 AM 10.9 °F -1.8 °F 7.2 °F 85% 30.35 in 7.0 mi SW 9.2 mph - N/A Snow Light Snow
7:55 AM 11.5 °F -1.1 °F 6.6 °F 81% 30.34 in 10.0 mi SW 9.2 mph - N/A   Mostly Cloudy
8:15 AM 11.8 °F 0.3 °F 5.9 °F 77% 30.34 in 10.0 mi SW 8.1 mph - N/A   Overcast
8:35 AM 12.0 °F 1.5 °F 5.5 °F 75% 30.33 in 10.0 mi SW 6.9 mph - N/A   Mostly Cloudy
8:55 AM 12.2 °F 0.7 °F 5.5 °F 75% 30.32 in 10.0 mi SW 8.1 mph - N/A   Scattered Clouds
9:15 AM 12.7 °F 0.4 °F 5.9 °F 74% 30.32 in 10.0 mi SSW 9.2 mph 16.1 mph N/A   Mostly Cloudy
9:35 AM 13.8 °F 1.0 °F 6.6 °F 73% 30.31 in 10.0 mi SW 10.4 mph - N/A   Mostly Cloudy
9:55 AM 14.4 °F 1.6 °F 6.8 °F 72% 30.31 in 10.0 mi SW 10.4 mph 20.7 mph N/A   Overcast
10:15 AM 15.1 °F 3.3 °F 7.0 °F 70% 30.30 in 10.0 mi SW 9.2 mph 19.6 mph N/A   Mostly Cloudy
10:35 AM 15.8 °F 2.7 °F 7.2 °F 69% 30.29 in 10.0 mi SW 11.5 mph 17.3 mph N/A   Scattered Clouds
10:55 AM 16.5 °F 1.3 °F 7.2 °F 67% 30.29 in 10.0 mi SW 16.1 mph 23.0 mph N/A   Scattered Clouds
11:15 AM 16.3 °F 2.1 °F 7.3 °F 68% 30.27 in 7.0 mi SSW 13.8 mph 18.4 mph N/A Snow Light Snow
11:35 AM 16.3 °F 1.6 °F 7.3 °F 68% 30.26 in 10.0 mi SSW 15.0 mph 18.4 mph N/A   Mostly Cloudy
11:55 AM 16.9 °F 2.8 °F 7.2 °F 66% 30.25 in 10.0 mi SSW 13.8 mph - N/A   Mostly Cloudy
12:15 PM 16.5 °F 3.0 °F 7.0 °F 66% 30.23 in 10.0 mi SSW 12.7 mph 18.4 mph N/A   Overcast
12:35 PM 17.4 °F 2.4 °F 6.8 °F 63% 30.23 in 10.0 mi SW 16.1 mph 24.2 mph N/A   Mostly Cloudy
12:55 PM 17.6 °F 2.2 °F 6.3 °F 61% 30.22 in 10.0 mi SW 17.3 mph 20.7 mph N/A   Scattered Clouds
1:15 PM 17.2 °F 3.3 °F 5.9 °F 61% 30.20 in 10.0 mi SSW 13.8 mph 25.3 mph N/A   Overcast
1:35 PM 17.2 °F 3.3 °F 5.2 °F 59% 30.19 in 10.0 mi SW 13.8 mph 21.9 mph N/A   Overcast
1:55 PM 17.4 °F 2.9 °F 4.1 °F 56% 30.19 in 10.0 mi SW 15.0 mph 23.0 mph N/A   Overcast
2:15 PM 16.9 °F 2.8 °F 3.4 °F 55% 30.18 in 10.0 mi SW 13.8 mph 29.9 mph N/A   Overcast
2:35 PM 16.7 °F 0.1 °F 3.9 °F 57% 30.18 in 10.0 mi SW 19.6 mph 28.8 mph N/A   Overcast
2:55 PM 15.8 °F 1.4 °F 4.3 °F 60% 30.18 in 10.0 mi SW 13.8 mph 18.4 mph N/A   Overcast
3:15 PM 15.4 °F 2.3 °F 4.6 °F 62% 30.19 in 10.0 mi SW 11.5 mph 23.0 mph N/A   Overcast
3:35 PM 14.9 °F -1.3 °F 5.0 °F 65% 30.18 in 7.0 mi SW 17.3 mph 20.7 mph N/A Snow Light Snow
3:55 PM 14.9 °F -0.3 °F 5.5 °F 66% 30.18 in 7.0 mi SW 15.0 mph 21.9 mph N/A Snow Light Snow
4:15 PM 14.9 °F 0.3 °F 5.9 °F 68% 30.18 in 7.0 mi SW 13.8 mph 18.4 mph N/A Snow Light Snow
4:35 PM 14.9 °F 4.0 °F 6.6 °F 70% 30.18 in 10.0 mi SW 8.1 mph 16.1 mph N/A Snow Light Snow
4:55 PM 14.9 °F 3.1 °F 7.2 °F 71% 30.18 in 7.0 mi SW 9.2 mph 16.1 mph N/A Snow Light Snow
5:15 PM 14.9 °F 2.3 °F 7.7 °F 73% 30.18 in 7.0 mi SW 10.4 mph 16.1 mph N/A Snow Light Snow
5:35 PM 14.9 °F 4.0 °F 8.2 °F 75% 30.17 in 7.0 mi SW 8.1 mph - N/A Snow Light Snow
5:55 PM 15.3 °F 2.8 °F 9.0 °F 76% 30.17 in 5.0 mi SW 10.4 mph 17.3 mph N/A Snow Light Snow
6:14 PM 15.6 °F 3.2 °F 9.5 °F 77% 30.17 in 7.0 mi SW 10.4 mph 19.6 mph N/A Snow Light Snow
6:35 PM 15.8 °F 6.1 °F 10.0 °F 78% 30.17 in 10.0 mi SW 6.9 mph - N/A Snow Light Snow
6:55 PM 16.2 °F 5.5 °F 10.8 °F 79% 30.17 in 7.0 mi SW 8.1 mph - N/A Snow Light Snow
7:15 PM 16.3 °F 4.9 °F 11.1 °F 80% 30.17 in 5.0 mi SW 9.2 mph - N/A Snow Light Snow
7:35 PM 16.5 °F 5.1 °F 11.3 °F 80% 30.17 in 7.0 mi SW 9.2 mph - N/A Snow Light Snow
7:55 PM 16.7 °F 8.3 °F 11.7 °F 81% 30.17 in 7.0 mi SW 5.8 mph - N/A Snow Light Snow
8:15 PM 17.1 °F 6.6 °F 12.0 °F 81% 30.17 in 7.0 mi SW 8.1 mph - N/A Snow Light Snow
8:35 PM 17.2 °F 6.8 °F 12.4 °F 81% 30.17 in 7.0 mi SW 8.1 mph - N/A Snow Light Snow
8:55 PM 17.4 °F 6.2 °F 12.7 °F 82% 30.16 in 7.0 mi SW 9.2 mph - N/A Snow Light Snow
9:15 PM 17.6 °F 8.2 °F 12.9 °F 82% 30.15 in 10.0 mi SW 6.9 mph - N/A   Overcast
9:35 PM 18.3 °F 9.1 °F 13.5 °F 81% 30.14 in 10.0 mi SW 6.9 mph - N/A   Overcast
9:55 PM 18.5 °F 8.4 °F 14.0 °F 83% 30.14 in 10.0 mi SW 8.1 mph - N/A   Overcast
10:15 PM 19.2 °F 7.0 °F 14.0 °F 80% 30.14 in 10.0 mi SW 11.5 mph - N/A   Overcast
10:35 PM 19.4 °F 8.6 °F 14.0 °F 80% 30.13 in 10.0 mi SW 9.2 mph - N/A   Overcast
10:55 PM 19.8 °F 9.9 °F 14.0 °F 78% 30.13 in 10.0 mi SW 8.1 mph - N/A   Overcast
11:15 PM 20.1 °F 9.5 °F 14.2 °F 78% 30.13 in 10.0 mi SW 9.2 mph - N/A   Overcast
11:34 PM 20.3 °F 9.0 °F 14.4 °F 78% 30.12 in 10.0 mi SW 10.4 mph - N/A   Overcast
11:55 PM 20.8 °F 10.4 °F 14.5 °F 77% 30.12 in 10.0 mi SW 9.2 mph - N/A   Overcast